Regional Weather Roundup
Issued by NWS Burlington, VT

Home | Current Version | Previous Version | Text Only | Print | Product List | Glossary On
Versions: 1 2 3 4 5 6 7 8 9 10 11 12 13 14 15 16 17 18 19 20 21 22 23 24 25 26 27 28 29 30 31 32 33 34 35 36 37 38 39 40 41 42 43 44 45 46 47 48 49 50
707
ASUS41 KBTV 241410
RWRBTV
VERMONT REGIONAL WEATHER ROUNDUP
NATIONAL WEATHER SERVICE BURLINGTON VT
1000 AM EDT FRI MAR 24 2017

NOTE: "FAIR" INDICATES FEW OR NO CLOUDS BELOW 12,000 FEET WITH NO
SIGNIFICANT WEATHER AND/OR OBSTRUCTIONS TO VISIBILITY.

* THESE REPORTS ARE NOT UNDER NWS QUALITY CONTROL AND/OR DO NOT
  REPORT WEATHER SUCH AS PRECIPITATION AND FOG.

VTZ001>019-241500-
_____VERMONT_____


CITY           SKY/WX    TMP DP  RH WIND       PRES   REMARKS
BURLINGTON     LGT SNOW  29  26  89 S15G24    30.26F VSB 1   WCI  18
MONTPELIER     LGT SNOW  24  21  88 S8        30.29F VSB 3/4 WCI  15
MORRISVILLE    LGT SNOW  25  22  88 S3        30.26F VSB 3/4
ST. JOHNSBURY*   N/A     24  19  81 MISG      30.29F
LYNDONVILLE*   LGT SNOW  22  17  83 SE14      30.28F WCI   9
MIDDLEBURY*    LGT SNOW  33  19  55 SE8       30.25F WCI  26
RUTLAND*       CLOUDY    31  12  45 SE13G18   30.27F WCI  21
SPRINGFIELD    CLOUDY    28   9  44 CALM      30.34F
HIGHGATE*      LGT SNOW  29  26  88 S9G20     30.23F WCI  20
NEWPORT*       LGT SNOW  24  19  80 S10G16    30.24F WCI  14
BENNINGTON     CLOUDY    37  11  34 S15G25    30.29S WCI  28
SUTTON*          N/A     19 N/A N/A MISG        N/A

_____LAKE CHAMPLAIN_____


CITY           SKY/WX    TMP DP  RH WIND       PRES   REMARKS
BURTON ISLAND*   N/A     30  28  93 S25         N/A  WCI  16
COLCHESTER RF*   N/A     30  30 100 S33         N/A  WCI  14
DIAMOND ISL*     N/A     28  28 100 S12         N/A  WCI  18

$$

NYZ007-026>031-035-052-083-087-241500-
_____NORTHERN NEW YORK_____


CITY           SKY/WX    TMP DP  RH WIND       PRES   REMARKS
PLATTSBURGH    LGT SNOW  28  25  88 S7        30.23F VSB 3/4 WCI  21
SARANAC LAKE   LGT SNOW  28  26  92 CALM      30.10F FOG
MASSENA        LGT SNOW  31  29  92 CALM      30.17F FOG
POTSDAM*       FLURRIES  34  28  80 S3        30.15F
WATERTOWN      LGT RAIN  35  28  75 S7        30.14S WCI  29
FT DRUM        MIX PCPN  32  28  86 S8        30.11F WCI  25
ALBANY         CLOUDY    36  12  37 S14       30.31F WCI  27
GLENS FALLS    CLOUDY    32  14  47 SE3       30.28F

$$
NHZ002-005-011-241500-
_____NEW HAMPSHIRE_____


CITY           SKY/WX    TMP DP  RH WIND       PRES   REMARKS
LEBANON        LGT SNOW  26  23  88 W5        30.34F VSB 3/4 WCI  20
KEENE          CLOUDY    32  16  51 S7        30.36F WCI  26
MT WASHINGTON  SNOW      10  10 100 SW45G62     N/A  VSB 1/16WCI -15
PLYMOUTH       SNOW      24  20  85 NE3       30.37F VSB 1/4
WHITEFIELD     LGT SNOW  24  13  62 W3        30.27F

$$

_____REGIONAL QUEBEC LOCATIONS_____


CITY           SKY/WX    TMP DP  RH WIND       PRES   REMARKS
MONTREAL       LGT SNOW  27  23  86 SE9       30.20F WCI  17
QUEBEC CITY    SNOWSHWR  21  14  73 CALM      30.25F VSB 3/4
SHERBROOKE     CLOUDY    28  19  69 S3        30.22F

_____REGIONAL ONTARIO LOCATIONS_____


CITY           SKY/WX    TMP DP  RH WIND       PRES   REMARKS
OTTAWA         LGT SNOW  27  25  93 SE8       30.13F WCI  18

______KEY______
VSB  - VISIBILITY IN MILES
WCI  - WIND CHILL INDEX
HX   - HEAT INDEX
$$
NNNN




USA.gov is the U.S. government's official web portal to all federal, state and local government web resources and services.